Tracking 28790 objects as of 19-Apr-2024
HD Live streaming from Space Station
objects crossing your sky now

SL-12 DEB

Track SL-12 DEB now!
10-day predictions


NORAD ID: 28004
Int'l Code: 1988-085BA
Perigee: 707.8 km
Apogee: 5,746.9 km
Inclination: 64.0 °
Period: 156.0 minutes
Semi major axis: 9598 km
RCS: 0.0165 m2 (small)
Launch date: September 16, 1988
Source: Commonwealth of Independent States (former USSR) (CIS)
Launch site: TYURATAM MISSILE AND SPACE COMPLEX (TTMTR)

Note: This is SATELLITE DEBRIS
Your satellite tracking list
Your tracking list is empty




NASA's NSSDC Master Catalog

Two Line Element Set (TLE):
1 28004U 88085BA  24109.40369616  .00013353  00000-0  32079-1 0  9991
2 28004  64.0374 255.4539 2624982 347.1301  28.8202  9.23226527  1466
Source of the keplerian elements: AFSPC